Orbital Elements at Epoch 2459000.5 (2020-May-31.0) TDB
Reference: JPL 2 (heliocentric ecliptic J2000)
Element | Value | Uncertainty (1-sigma) | Units |
e | .5853045976301247 | 0.00023858 | |
a | 2.42905089695489 | 0.001383 | au |
q | 1.007316239089615 | 6.2983e-06 | au |
i | 6.836375759032403 | 0.00188 | deg |
node | 93.71928310022194 | 0.00058817 | deg |
peri | 209.3432697888998 | 0.0012812 | deg |
M | 346.705964011358 | 0.011614 | deg |
tp | 2459051.563161326403 (2020-Jul-21.06316133) | 0.0010003 | TDB |
period | 1382.780826922003 3.79 | 1.1809 0.003233 | d yr |
n | .260344946206219 | 0.00022234 | deg/d |
Q | 3.850785554820165 | 0.0021924 | au |
|
| | Orbit Determination Parameters
Additional Information
|